Regional Weather Roundup
Issued by NWS Glasgow, MT

Home | Current Version | Previous Version | Text Only | Print | Product List | Glossary On
Versions: 1 2 3 4 5 6 7 8 9 10 11 12 13 14 15 16 17 18 19 20 21 22 23 24 25 26 27 28
000
ASUS45 KGGW 241615
RWRGGW
HOURLY REGIONAL WEATHER ROUNDUP FOR NORTHEAST MONTANA
NATIONAL WEATHER SERVICE GLASGOW MONTANA
1000 AM MDT SAT JUN 24 2017

NOTE: "FAIR" INDICATES FEW OR NO CLOUDS BELOW 12,000 FEET WITH NO
SIGNIFICANT WEATHER AND/OR OBSTRUCTIONS TO VISISBILITY.

NORTHEAST MONTANA


CITY           SKY/WX    TMP DP  RH WIND       PRES   REMARKS
GLASGOW        SUNNY     61  36  39 VRB3      30.31S
PLENTYWOOD       N/A     56  32  40 N12G20      N/A
WOLF POINT     SUNNY     63  35  35 E5        30.31S
JORDAN           N/A     67  35  30 N14G23    30.30S
WINNETT          N/A     65  32  29 N7G16       N/A
SIDNEY         SUNNY     60  35  39 N15G24    30.29S
GLENDIVE       SUNNY     62  35  36 N13       30.30S
MALTA            N/A     65  43  44 N3          N/A

FORT PECK REPORTS


CITY           SKY/WX    TMP DP  RH WIND       PRES   REMARKS
FORT PECK        N/A     60  41  49 S3          N/A
THE PINES        N/A     62  37  39 CALM        N/A

SOUTHEAST MONTANA


CITY           SKY/WX    TMP DP  RH WIND       PRES   REMARKS
BILLINGS       MOSUNNY   64  39  39 CALM      30.34F
MILES CITY     SUNNY     68  34  28 NW14      30.29S
BAKER          SUNNY     61  33  35 N15G22    30.30S
LIVINGSTON     SUNNY     60  39  45 W5        30.35F

CENTRAL MONTANA


CITY           SKY/WX    TMP DP  RH WIND       PRES   REMARKS
HAVRE          MOSUNNY   65  41  41 W5        30.32F
LEWISTOWN      SUNNY     61  35  37 VRB3      30.35F
GREAT FALLS    SUNNY     64  38  38 SE3       30.35S
CUT BANK       SUNNY     62  42  47 CALM      30.35S
HELENA         SUNNY     63  39  41 VRB3      30.33F
BUTTE          SUNNY     60  36  40 CALM      30.37F
BOZEMAN        SUNNY     60  40  47 NW7       30.35F

WESTERN MONTANA


CITY           SKY/WX    TMP DP  RH WIND       PRES   REMARKS
MISSOULA       SUNNY     63  42  46 NW5       30.30F
KALISPELL      NOT AVBL

NORTH DAKOTA


CITY           SKY/WX    TMP DP  RH WIND       PRES   REMARKS
WILLISTON      SUNNY     60  36  40 NW22G28   30.28S
DICKINSON      SUNNY     58  30  34 NW24G36   30.23R
MINOT          CLOUDY    52  42  69 NW21G29   30.18R
BISMARCK       MOSUNNY   56  38  50 NW23G35   30.20R

SOUTHERN SASKATCHEWAN


CITY           SKY/WX    TMP DP  RH WIND       PRES   REMARKS
REGINA         MOSUNNY   55  39  54 N12G17    30.29S
ESTEVAN        PTSUNNY   52  41  66 NW17G23   30.25S
SWIFT CURRENT  SUNNY     61  45  55 N6        30.29S





USA.gov is the U.S. government's official web portal to all federal, state and local government web resources and services.